Regional Weather Roundup
Issued by NWS Midland/Odessa, TX

Home | Current Version | Previous Version | Text Only | Print | Product List | Glossary On
Versions: 1 2 3 4 5 6 7 8 9 10 11 12 13 14 15 16 17 18 19 20 21 22 23 24 25 26 27 28 29 30 31 32 33 34 35 36 37 38 39 40 41 42 43 44 45 46 47 48 49 50
000
ASUS44 KMAF 291510
RWRMAF
MIDLAND AREA WEATHER ROUNDUP
NATIONAL WEATHER SERVICE MIDLAND TX
1000 AM CDT THU JUN 29 2017

...IN SOUTHWEST TEXAS AND SOUTHEAST NEW MEXICO...

CITY           SKY/WX    TMP DP  RH WIND       PRES   REMARKS
ALPINE         SUNNY     85  54  34 W13       30.09S
ANDREWS        FAIR      83  63  51 SW9       29.91R
ARTESIA        SUNNY     84  46  26 CALM      29.94R
BIG SPRING     SUNNY     80  66  62 S22G28    29.89S
CARLSBAD       SUNNY     82  60  47 N6        29.91R
DRYDEN           N/A     81  65  58 S5        29.88S
FORT STOCKTON  SUNNY     91  58  32 SW16      29.89R
GUAD PASS      NOT AVBL
HOBBS          SUNNY     81  59  47 SW9       29.95R
MARFA          SUNNY     81  57  43 W6        30.10S
MIDLAND AIRPK  SUNNY     82  64  56 S15       29.89S
MIDLAND INTL   SUNNY     82  64  54 S13       29.88R
ODESSA         SUNNY     82  64  54 SW14      29.90R
PECOS          SUNNY     85  55  36 CALM      29.86S
PRESIDIO       FAIR      88  59  37 S3        29.96S
SEMINOLE       SUNNY     82  61  49 SW13      29.93R
SNYDER         SUNNY     79  67  66 S16G25    29.87S
WINK           SUNNY     84  61  45 VRB3      29.87R
$$
...OTHER STATIONS IN TEXAS...

CITY           SKY/WX    TMP DP  RH WIND       PRES   REMARKS
ABILENE        SUNNY     80  69  69 S15G26    29.87R
AMARILLO       SUNNY     83  58  42 MISG      29.85R
AUSTIN         PTSUNNY   81  75  82 S8        29.90S
BROWNSVILLE    MOSUNNY   85  78  80 S15       29.89R
CORPUS CHRISTI MOSUNNY   86  77  74 S15       29.88S
DALLAS FTW     CLOUDY    80  73  79 S14       29.87S
DEL RIO        MOSUNNY   82  73  74 SE10      29.86R
EL PASO        SUNNY     89  37  16 W14       30.00R
HOUSTON INT    PTSUNNY   84  76  76 VRB3      29.91R
LUBBOCK        SUNNY     80  63  55 SW17      29.88S
SAN ANGELO     SUNNY     83  68  60 S14G24    29.87S
SAN ANTONIO    CLOUDY    80  73  79 SE9       29.92R
WACO           CLOUDY    79  73  82 S12       29.91R
WICHITA FALLS  NOT AVBL
$$
...OTHER LOCATIONS IN NEW MEXICO...

CITY           SKY/WX    TMP DP  RH WIND       PRES   REMARKS
ALAMOGORDO     SUNNY     88  30  12 NE7       30.02S
ALBUQUERQUE    SUNNY     77  28  16 S8        30.11R
CANNON AFB     SUNNY     85  34  16 W21G28    29.93S
CLOVIS         SUNNY     87  37  17 NW22      29.92R
HOLLOMAN AFB   SUNNY     86  30  13 E6        30.02S
ROSWELL        SUNNY     80  56  43 E6        29.95R
RUIDOSO        SUNNY     72  28  20 NW12G18   30.24R
SANTA FE       SUNNY     77  27  15 W9        30.14S
TRUTH OR CONSE SUNNY     84  34  16 NW16G23   30.06R
TUCUMCARI      SUNNY     85  31  14 W9        29.88R
$$




USA.gov is the U.S. government's official web portal to all federal, state and local government web resources and services.